This demonstration page uses our WeatherBlox Daily Observations layout. Learn more.

38.88101, -77.10428

Hourly Observations for March 26, 2015

Temp ( °F °C ) Dew Point ( °F °C ) Humidity (%) Winds ( mph kmh ) Pressure ( in mb ) Visibility ( mi km ) Precip ( " mm )
12:52 am 00:52 Mostly Cloudy 50 10 38 3.3 63 63 S 8 13 30.11 1020 10 16.0934 0 0
1:52 am 01:52 Cloudy 50 10 39 3.9 66 66 S 8 13 30.1 1019 10 16.0934 0 0
2:52 am 02:52 Partly Cloudy 50 10 39 3.9 66 66 S 9 15 30.07 1018 10 16.0934 0 0
3:52 am 03:52 Cloudy 50 10 40 4.4 68 68 S 9 15 30.05 1018 10 16.0934 0 0
4:52 am 04:52 Cloudy 50 10 40 4.4 68 68 S 6 9 30.02 1017 10 16.0934 0 0
5:15 am 05:15 Cloudy 52 11 39 4 62 62 S 7 11 30 1016 10 16.0934 0 0
5:52 am 05:52 Mostly Cloudy 51 10.6 39 3.9 64 64 SSW 7 11 29.99 1016 10 16.0934 0 0
6:23 am 06:23 Cloudy 52 11 39 4 62 62 S 9 15 30 1016 10 16.0934 0 0
6:37 am 06:37 Cloudy 52 11 41 5 67 67 S 12 19 30 1016 10 16.0934 0 0
6:52 am 06:52 Cloudy 52 11.1 40 4.4 64 64 S 10 17 29.98 1015 10 16.0934 0 0
7:52 am 07:52 Mostly Cloudy 53 11.7 40 4.4 61 61 S 9 15 29.96 1015 10 16.0934 0 0
8:33 am 08:33 Mostly Cloudy 54 12 43 6 67 67 S 13 20 29.94 1014 10 16.0934 0 0
8:52 am 08:52 Cloudy 53 11.7 42 5.6 66 66 S 10 17 29.94 1014 10 16.0934 0 0
9:19 am 09:19 Cloudy with Rain 52 11 45 7 77 77 S 10 17 29.94 1014 2.5 4.02335 0.02 0.508
9:25 am 09:25 Cloudy with Rain 52 11 46 8 82 82 S 10 17 29.94 1014 4 6.43736 0.05 1.27
9:40 am 09:40 Cloudy 54 12 48 9 82 82 SSW 7 11 29.91 1013 7 11.26538 0 0
9:47 am 09:47 Cloudy 54 12 48 9 82 82 S 6 9 29.94 1014 10 16.0934 0.05 1.27
9:52 am 09:52 Cloudy 54 12.2 49 9.4 83 83 SSW 6 9 29.92 1013 10 16.0934 0.05 1.27
10:08 am 10:08 Cloudy 54 12 48 9 82 82 SSE 3 6 29.91 1013 10 16.0934 0 0
10:17 am 10:17 Cloudy with Light Rain 54 12 48 9 82 82 S 3 6 29.91 1013 7 11.26538 0 0.0254
10:28 am 10:28 Cloudy with Light Rain 54 12 48 9 82 82 Calm 29.91 1013 7 11.26538 0 0
10:40 am 10:40 Cloudy with Light Rain 55 13 50 10 82 82 S 3 6 29.88 1012 4 6.43736 0 0
10:46 am 10:46 Cloudy with Rain 55 13 50 10 82 82 Calm 29.88 1012 2 3.21868 0 0
10:52 am 10:52 Cloudy with Light Rain 55 12.8 51 10.6 87 87 SSW 3 6 29.89 1012 2.5 4.02335 0.03 0.762
11:10 am 11:10 Cloudy with Light Rain 55 13 52 11 88 88 SW 8 13 29.88 1012 4 6.43736 0 0
11:20 am 11:20 Cloudy with Light Rain 55 13 52 11 88 88 S 6 9 29.88 1012 3 4.82802 0 0
11:27 am 11:27 Cloudy with Light Rain 55 13 52 11 88 88 S 7 11 29.88 1012 2 3.21868 0.02 0.508
11:37 am 11:37 Cloudy with Light Rain 55 13 52 11 88 88 S 7 11 29.88 1012 4 6.43736 0.02 0.508
11:52 am 11:52 Cloudy with Mist and Fog 55 12.8 51 10.6 87 87 S 9 15 29.86 1011 5 8.0467 0.02 0.508
12:52 pm 12:52 Cloudy 57 13.9 54 12.2 90 90 S 10 17 29.81 1009 8 12.87472 0 0
1:52 pm 13:52 Cloudy 64 17.8 58 14.4 81 81 SSW 6 9 29.75 1008 9 14.48406 0 0
1:58 pm 13:58 Cloudy 64 18 59 15 83 83 SW 12 19 29.74 1007 10 16.0934 0 0
2:08 pm 14:08 Cloudy 66 19 59 15 78 78 SSW 10 17 29.74 1007 10 16.0934 0 0
2:25 pm 14:25 Partly Cloudy 68 20 61 16 78 78 SSW 16 26 29.71 1006 10 16.0934 0 0
2:52 pm 14:52 Partly Cloudy 71 21.7 61 16.1 71 71 S 10 17 29.68 1005 10 16.0934 0 0
3:36 pm 15:36 Partly Cloudy 73 23 57 14 57 57 SSW 18 30 29.65 1004 10 16.0934 0 0
3:52 pm 15:52 Partly Cloudy 75 23.9 57 13.9 54 54 SSW 17 28 29.65 1004 10 16.0934 0 0
4:52 pm 16:52 Mostly Cloudy 75 23.9 56 13.3 52 52 S 14 22 29.61 1003 10 16.0934 0 0
5:52 pm 17:52 Mostly Cloudy 76 24.4 54 12.2 47 47 SSW 15 24 29.59 1002 10 16.0934 0 0
6:52 pm 18:52 Cloudy 75 23.9 53 11.7 46 46 SSW 16 26 29.59 1002 10 16.0934 0 0
7:15 pm 19:15 Cloudy 73 23 52 11 47 47 SSW 13 20 29.59 1002 10 16.0934 0 0
7:41 pm 19:41 Cloudy 73 23 52 11 47 47 SW 9 15 29.62 1003 10 16.0934 0 0
7:52 pm 19:52 Cloudy 74 23.3 52 11.1 46 46 WSW 9 15 29.62 1003 10 16.0934 0 0
8:05 pm 20:05 Cloudy with Rain 72 22 55 13 57 57 W 15 24 29.62 1003 7 11.26538 0.01 0.254
8:16 pm 20:16 Cloudy with Light Rain 70 21 57 14 64 64 WSW 16 26 29.62 1003 9 14.48406 0 0
8:31 pm 20:31 Cloudy 70 21 57 14 64 64 NW 12 19 29.62 1003 10 16.0934 0.03 0.762
8:34 pm 20:34 Cloudy with Light Rain 68 20 57 14 69 69 NW 12 19 29.65 1004 10 16.0934 0 0
8:44 pm 20:44 Cloudy with Light Rain 68 20 59 15 73 73 NW 9 15 29.65 1004 10 16.0934 0 0
8:52 pm 20:52 Cloudy with Light Rain 67 19.4 59 15 76 76 WNW 16 26 29.65 1004 10 16.0934 0.03 0.762
9:17 pm 21:17 Cloudy 64 18 55 13 73 73 NNW 18 30 29.68 1005 10 16.0934 0 0.0254
9:34 pm 21:34 Cloudy 63 17 54 12 73 73 N 16 26 29.68 1005 10 16.0934 0 0
9:52 pm 21:52 Cloudy 63 17.2 53 11.7 70 70 NNW 15 24 29.69 1005 10 16.0934 0 0.0254
9:58 pm 21:58 Windy with Storms Likely 63 17 52 11 68 68 NNW 20 31 29.71 1006 10 16.0934 0 0
10:10 pm 22:10 Windy with Storms Likely 61 16 52 11 72 72 NNW 20 31 29.71 1006 7 11.26538 0 0
10:17 pm 22:17 Cloudy with Rain 57 14 52 11 82 82 NNW 10 17 29.71 1006 3 4.82802 0.03 0.762
10:22 pm 22:22 Cloudy with Heavy Rain 57 14 52 11 82 82 NNW 10 17 29.74 1007 3 4.82802 0 0
10:30 pm 22:30 Cloudy with Rain 57 14 52 11 82 82 N 15 24 29.74 1007 4 6.43736 0 0
10:43 pm 22:43 Cloudy with Light Rain 57 14 48 9 72 72 N 15 24 29.74 1007 10 16.0934 0.14 3.556
10:52 pm 22:52 Cloudy with Light Rain 56 13.3 48 8.9 75 75 NNW 14 22 29.73 1007 10 16.0934 0.15 3.81
11:52 pm 23:52 Cloudy 54 12.2 45 7.2 72 72 NW 14 22 29.74 1007 10 16.0934 0 0.0254

Powered by AerisWeather